This is the latest recevied weather packets stored in our database for station/object DH1NAI-6. If no packets are shown the sender has not sent any weather packets the latest 10 day(s).
| Time | Temp. | Humidity | Pressure | Rain* | Wind** | Luminosity | Snow |
|---|---|---|---|---|---|---|---|
| 1777888562 | 18.33° C | 54% | 1012.4 hPa | 0 mm | - | 187 W/m² | - |
| 1777887954 | 18.33° C | 53% | 1012.3 hPa | 0 mm | - | 150 W/m² | - |
| 1777887347 | 17.78° C | 56% | 1012.6 hPa | 0 mm | - | 181 W/m² | - |
| 1777886738 | 18.33° C | 54% | 1012.9 hPa | 0 mm | - | 168 W/m² | - |
| 1777886130 | 18.33° C | 53% | 1012.8 hPa | 0 mm | - | 194 W/m² | - |
| 1777885522 | 18.33° C | 55% | 1012.8 hPa | 0 mm | - | 190 W/m² | - |
| 1777884898 | 17.22° C | 56% | 1012.9 hPa | 0 mm | - | 172 W/m² | - |
| 1777884274 | 16.67° C | 56% | 1012.6 hPa | 0 mm | - | 137 W/m² | - |
| 1777883666 | 16.67° C | 57% | 1012.8 hPa | 0 mm | - | 109 W/m² | - |
| 1777883059 | 16.67° C | 57% | 1012.7 hPa | 0 mm | - | 111 W/m² | - |
| 1777882450 | 17.22° C | 57% | 1012.5 hPa | 0 mm | - | 97 W/m² | - |
| 1777881843 | 16.67° C | 58% | 1012.7 hPa | 0 mm | - | 122 W/m² | - |
| 1777881234 | 17.22° C | 54% | 1012.6 hPa | 0 mm | - | 134 W/m² | - |
| 1777880610 | 16.67° C | 57% | 1012.7 hPa | 0 mm | - | 133 W/m² | - |
| 1777880002 | 16.11° C | 56% | 1012.7 hPa | 0 mm | - | 121 W/m² | - |
| 1777879394 | 16.11° C | 59% | 1012.7 hPa | 0 mm | - | 111 W/m² | - |
| 1777878786 | 16.11° C | 58% | 1012.6 hPa | 0 mm | - | 104 W/m² | - |
| 1777878178 | 16.11° C | 57% | 1012.3 hPa | 0 mm | - | 92 W/m² | - |
| 1777877570 | 16.67° C | 58% | 1012.4 hPa | 0 mm | - | 85 W/m² | - |
| 1777876962 | 16.11° C | 61% | 1012.3 hPa | 0 mm | - | 82 W/m² | - |
| 1777876354 | 15.56° C | 64% | 1012.2 hPa | 0 mm | - | 72 W/m² | - |
| 1777875746 | 15° C | 66% | 1012.3 hPa | 0 mm | - | 57 W/m² | - |
| 1777875138 | 13.89° C | 67% | 1012.2 hPa | 0 mm | - | 24 W/m² | - |
| 1777874530 | 14.44° C | 69% | 1012.1 hPa | 0 mm | - | 24 W/m² | - |
| 1777873922 | 14.44° C | 68% | 1012.2 hPa | 0 mm | - | 23 W/m² | - |
* Rain latest hour (hover to see other rain measurements)
** Current wind speed in m/s (hover to see current wind gust speed)